Location: Dackenheim
(49.5215°N, 8.1854°E)
Time: 03:25:18
(UTC+00:00)

UWE-3 - Pass Details

Date: 20 March 2026
Orbit: 543 x 612 km, 97.9° (Epoch: 12 April)

Event Time Altitude Azimuth Distance (km) Brightness Sun altitude
Rises 02:46:44 0° 10° (N) 2,882 ? -25.9°
Reaches altitude 10° 02:48:58 10° 6° (N) 1,966 ? -25.6°
Enters shadow 02:52:00 41° 341° (NNW) 879 ? -25.2°
